| time (UTC) | temp F | wind direction | speed knots | gust knots | rain 1hr in | rain 24hr in | rain mn in | humidity % | barometer mb |
| 20260505124545 | 54 | 0 | 0.0 | 1.7 | 0.00 | 0.00 | 0.00 | 91 | 1013.2 |
| 20260505123039 | 53 | 180 | 0.0 | 2.6 | 0.00 | 0.00 | 0.00 | 92 | 1013.1 |
| 20260505121541 | 51 | 180 | 0.0 | 2.6 | 0.00 | 0.00 | 0.00 | 92 | 1012.9 |
| 20260505120049 | 50 | 0 | 0.0 | 2.6 | 0.00 | 0.00 | 0.00 | 92 | 1012.9 |
| 20260505114542 | 49 | 180 | 0.0 | 2.6 | 0.00 | 0.00 | 0.00 | 92 | 1012.8 |
| 20260505113038 | 49 | 0 | 0.0 | 0.0 | 0.00 | 0.00 | 0.00 | 91 | 1012.7 |
| 20260505111536 | 49 | 0 | 0.0 | 0.0 | 0.00 | 0.00 | 0.00 | 91 | 1012.8 |
| 20260505101542 | 49 | 0 | 0.0 | 0.0 | 0.00 | 0.00 | 0.00 | 90 | 1012.5 |
| 20260505100037 | 49 | 0 | 0.0 | 0.0 | 0.00 | 0.00 | 0.00 | 90 | 1012.2 |
| 20260505094603 | 49 | 0 | 0.0 | 0.0 | 0.00 | 0.00 | 0.00 | 90 | 1012.0 |
| 20260505093041 | 49 | 0 | 0.0 | 0.0 | 0.00 | 0.00 | 0.00 | 90 | 1011.9 |
| 20260505091542 | 49 | 0 | 0.0 | 0.0 | 0.00 | 0.00 | 0.00 | 90 | 1011.8 |
| 20260505090044 | 50 | 0 | 0.0 | 0.0 | 0.00 | 0.00 | 0.00 | 89 | 1011.7 |
| 20260505084546 | 50 | 0 | 0.0 | 0.0 | 0.00 | 0.00 | 0.00 | 89 | 1011.6 |
| 20260505083038 | 50 | 0 | 0.0 | 0.0 | 0.00 | 0.00 | 0.00 | 89 | 1011.6 |
| 20260505081535 | 50 | 0 | 0.0 | 0.0 | 0.00 | 0.00 | 0.00 | 89 | 1011.6 |
| 20260505080049 | 50 | 0 | 0.0 | 0.0 | 0.00 | 0.00 | 0.00 | 88 | 1011.4 |
| 20260505074540 | 51 | 0 | 0.0 | 0.0 | 0.00 | 0.00 | 0.00 | 88 | 1011.4 |
| 20260505073044 | 51 | 0 | 0.0 | 0.0 | 0.00 | 0.00 | 0.00 | 87 | 1011.3 |
| 20260505071533 | 51 | 0 | 0.0 | 0.0 | 0.00 | 0.00 | 0.00 | 87 | 1011.2 |
| 20260505070052 | 51 | 0 | 0.0 | 0.0 | 0.00 | 0.00 | 0.00 | 87 | 1011.1 |
| 20260505064542 | 52 | 0 | 0.0 | 0.0 | 0.00 | 0.00 | 0.00 | 86 | 1011.3 |
| 20260505063043 | 52 | 0 | 0.0 | 0.0 | 0.00 | 0.00 | 0.00 | 86 | 1011.2 |
| 20260505061552 | 52 | 0 | 0.0 | 0.0 | 0.00 | 0.00 | 0.00 | 86 | 1011.2 |
| 20260505060037 | 52 | 0 | 0.0 | 0.0 | 0.00 | 0.00 | 0.00 | 86 | 1011.3 |
| 20260505054539 | 53 | 0 | 0.0 | 0.0 | 0.00 | 0.00 | 0.00 | 85 | 1011.2 |
| 20260505053049 | 53 | 180 | 0.0 | 1.7 | 0.00 | 0.00 | 0.00 | 84 | 1011.2 |
| 20260505051538 | 54 | 0 | 0.0 | 1.7 | 0.00 | 0.00 | 0.00 | 84 | 1011.0 |
| 20260505041551 | 55 | 0 | 1.7 | 2.6 | 0.00 | 0.00 | 0.00 | 82 | 1010.7 |
| 20260505040049 | 56 | 0 | 0.0 | 2.6 | 0.00 | 0.00 | 0.00 | 82 | 1010.6 |
| 20260505034541 | 56 | 0 | 0.9 | 2.6 | 0.00 | 0.00 | 0.00 | 81 | 1010.4 |
| 20260505033035 | 57 | 0 | 0.0 | 1.7 | 0.00 | 0.00 | 0.00 | 80 | 1010.4 |
| 20260505031543 | 57 | 180 | 0.0 | 2.6 | 0.00 | 0.00 | 0.00 | 79 | 1010.3 |
| 20260505030041 | 58 | 0 | 0.0 | 2.6 | 0.00 | 0.00 | 0.00 | 78 | 1010.4 |
| 20260505024555 | 58 | 0 | 0.9 | 3.5 | 0.00 | 0.00 | 0.00 | 77 | 1010.3 |
| 20260505023038 | 59 | 180 | 0.0 | 2.6 | 0.00 | 0.00 | 0.00 | 76 | 1010.3 |
| 20260505021542 | 59 | 0 | 0.0 | 2.6 | 0.00 | 0.00 | 0.00 | 75 | 1010.2 |
| 20260505020040 | 60 | 180 | 0.9 | 2.6 | 0.00 | 0.00 | 0.00 | 74 | 1010.1 |
| 20260505014559 | 61 | 180 | 1.7 | 3.5 | 0.00 | 0.00 | 0.00 | 72 | 1010.1 |
| 20260505013037 | 61 | 180 | 0.9 | 2.6 | 0.00 | 0.00 | 0.00 | 72 | 1010.0 |
| 20260505011554 | 62 | 180 | 0.9 | 2.6 | 0.00 | 0.00 | 0.00 | 71 | 1009.9 |
| 20260505010042 | 63 | 0 | 0.0 | 3.5 | 0.00 | 0.00 | 0.00 | 70 | 1009.8 |
| 20260505004542 | 63 | 0 | 0.0 | 2.6 | 0.00 | 0.00 | 0.00 | 69 | 1009.7 |
| 20260505003039 | 64 | 180 | 1.7 | 2.6 | 0.00 | 0.00 | 0.00 | 67 | 1009.7 |
| 20260505001542 | 66 | 180 | 0.9 | 2.6 | 0.00 | 0.00 | 0.00 | 67 | 1009.8 |
| 20260505000054 | 67 | 0 | 0.0 | 2.6 | 0.00 | 0.00 | 0.00 | 64 | 1009.6 |
| 20260504234547 | 69 | 0 | 0.0 | 1.7 | 0.00 | 0.00 | 0.00 | 59 | 1009.3 |
| 20260504233056 | 70 | 180 | 0.0 | 7.8 | 0.00 | 0.00 | 0.00 | 56 | 1009.3 |
| 20260504231540 | 71 | 180 | 0.9 | 2.6 | 0.00 | 0.00 | 0.00 | 54 | 1009.3 |
| 20260504230037 | 73 | 180 | 0.9 | 3.5 | 0.00 | 0.00 | 0.00 | 51 | 1009.3 |
| 20260504224537 | 75 | 180 | 1.7 | 4.3 | 0.00 | 0.00 | 0.00 | 46 | 1009.4 |
| 20260504223053 | 76 | 180 | 0.0 | 8.7 | 0.00 | 0.00 | 0.00 | 42 | 1009.5 |
| 20260504221540 | 76 | 189 | 2.6 | 7.8 | 0.00 | 0.00 | 0.00 | 40 | 1009.4 |
| 20260504220039 | 76 | 143 | 0.0 | 7.8 | 0.00 | 0.00 | 0.00 | 46 | 1009.5 |
| 20260504214544 | 75 | 351 | 0.0 | 5.2 | 0.00 | 0.00 | 0.00 | 50 | 1009.5 |
| 20260504213049 | 76 | 65 | 0.9 | 3.5 | 0.00 | 0.00 | 0.00 | 44 | 1009.7 |
| 20260504211542 | 76 | 330 | 1.7 | 3.5 | 0.00 | 0.00 | 0.00 | 42 | 1009.9 |
| 20260504210044 | 76 | 310 | 1.7 | 6.1 | 0.00 | 0.00 | 0.00 | 42 | 1010.1 |
| 20260504204545 | 74 | 325 | 0.9 | 7.8 | 0.00 | 0.00 | 0.00 | 43 | 1010.3 |
| 20260504203049 | 73 | 93 | 1.7 | 8.7 | 0.00 | 0.00 | 0.00 | 42 | 1010.4 |
| 20260504201535 | 72 | 185 | 0.9 | 13.0 | 0.00 | 0.00 | 0.00 | 48 | 1010.8 |
| 20260504200044 | 72 | 145 | 1.7 | 12.2 | 0.00 | 0.00 | 0.00 | 49 | 1011.0 |
| 20260504194539 | 70 | 180 | 2.6 | 10.4 | 0.00 | 0.00 | 0.00 | 52 | 1011.3 |
| 20260504193039 | 70 | 180 | 2.6 | 7.0 | 0.00 | 0.00 | 0.00 | 55 | 1011.5 |
| 20260504191538 | 72 | 0 | 2.6 | 7.8 | 0.00 | 0.00 | 0.00 | 49 | 1011.1 |
| 20260504190040 | 72 | 180 | 1.7 | 7.0 | 0.00 | 0.00 | 0.00 | 44 | 1010.9 |
| 20260504184542 | 73 | 180 | 1.7 | 10.4 | 0.00 | 0.00 | 0.00 | 45 | 1010.8 |
| 20260504183040 | 73 | 180 | 2.6 | 8.7 | 0.00 | 0.00 | 0.00 | 44 | 1011.1 |
| 20260504181545 | 72 | 180 | 6.1 | 13.9 | 0.00 | 0.00 | 0.00 | 43 | 1011.2 |
| 20260504180443 | 72 | 180 | 5.2 | 14.8 | 0.00 | 0.00 | 0.00 | 44 | 1011.3 |
| 20260504174535 | 71 | 180 | 2.6 | 11.3 | 0.00 | 0.00 | 0.00 | 46 | 1011.5 |
| 20260504171547 | 69 | 180 | 2.6 | 12.2 | 0.00 | 0.00 | 0.00 | 51 | 1012.3 |
| 20260504170109 | 67 | 180 | 2.6 | 9.6 | 0.00 | 0.00 | 0.00 | 54 | 1012.6 |